[[{"header":{"parameterUnit":"m.s-1","parameterCategory":1,"la1":30.2991,"la2":30.254,"lo1":-89.0895,"lo2":-89.0444,"dy":0.0017,"dx":0.0017,"nx":28,"ny":28,"refTime":"2025-05-24T03:00:00:Z","depth":0,"parameterNumber":2,"parameterNumberName":"U-component_of_WINDS"},"data":[0,0,0,0,0,0,0,0,0,0,0,0,0,0,0,0,0,0,0,0,0,0,0,0,0,0,0,0,0,0,0,0,0,0,0,0,0,0,0,0,0,0,0,0,0,0,0,0,0,0,0,0,0,0,0,0,0,0,-0.6707,-0.6707,0,-0.6712,-0.6712,-0.6713,-0.6721,-0.6722,-0.6722,-0.6722,-0.6727,-0.6727,-0.6727,0,0,0,0,0,0,0,0,0,0,0,0,0,-0.6706,-0.6706,-0.6707,-0.6707,-0.6707,-0.6712,-0.6712,-0.6713,-0.6721,-0.6722,-0.6722,-0.6722,-0.6727,-0.6727,-0.6727,0,0,0,0,0,0,0,0,0,0,0,0,0,-0.6708,-0.6706,-0.6707,-0.6712,-0.6713,-0.6712,-0.6712,-0.6713,-0.6721,-0.6722,-0.6722,-0.6722,-0.6727,-0.6727,-0.6727,-0.6722,0,0,-0.6727,-0.6727,0,0,0,0,0,0,0,0,-0.6708,-0.6708,-0.6712,-0.6712,-0.6713,-0.6717,-0.6714,-0.6716,-0.6721,-0.6718,-0.6722,-0.6722,-0.6723,-0.6724,-0.6724,-0.6722,-0.6722,-0.6727,-0.6727,-0.6727,-0.6727,0,0,0,0,0,0,0,-0.6708,-0.6708,-0.6709,-0.6712,-0.6712,-0.6715,-0.6715,-0.6714,-0.6719,-0.6719,-0.6719,-0.672,-0.6724,-0.6724,-0.6724,-0.6722,-0.6727,-0.6727,-0.6727,-0.6727,-0.6717,-0.6716,0,0,0,0,0,0,-0.6707,-0.6708,-0.6709,-0.6709,-0.6711,-0.6714,-0.6715,-0.6715,-0.6719,-0.672,-0.6719,-0.672,-0.6724,-0.6724,-0.6724,-0.6719,-0.6727,-0.6727,-0.6727,-0.6717,-0.6716,-0.6716,0,0,0,0,0,0,-0.6707,-0.6707,-0.6709,-0.6709,-0.6709,-0.6714,-0.6714,-0.6715,-0.6715,-0.672,-0.6721,-0.6719,-0.6724,-0.6724,-0.6722,-0.6719,-0.6727,-0.6727,-0.6717,-0.6717,-0.6716,-0.6707,0,0,0,0,0,0,-0.6707,-0.6707,-0.6705,-0.6709,-0.6709,-0.6707,-0.6714,-0.6715,-0.6715,-0.6716,-0.672,-0.6721,-0.6724,-0.6722,-0.6722,-0.6719,-0.6727,-0.6717,-0.6717,-0.6716,-0.6708,-0.6707,-0.6706,0,0,0,0,0,-0.6706,-0.6702,-0.6704,-0.6705,-0.6707,-0.6707,-0.6707,-0.6711,-0.6715,-0.6713,-0.6716,-0.672,-0.6719,-0.6722,-0.6722,-0.6719,-0.6718,-0.6717,-0.6716,-0.6708,-0.6707,-0.6706,0,0,0,0,0,0,-0.6697,-0.6702,-0.6705,-0.6702,-0.6704,-0.6708,-0.6706,-0.671,-0.671,-0.6711,-0.6717,-0.6718,-0.6715,-0.6717,-0.672,-0.6714,-0.6719,-0.6719,-0.6713,-0.6712,-0.6711,-0.671,-0.6727,0,0,0,0,0,-0.6694,-0.6694,-0.6699,-0.6695,-0.6696,-0.6701,-0.6701,-0.6704,-0.6706,-0.6707,-0.671,-0.6712,-0.6712,-0.6712,-0.6712,-0.6708,-0.6709,-0.6706,-0.6705,-0.6704,-0.6703,-0.6702,-0.67,-0.6714,-0.6714,-0.6714,0,0,-0.6689,-0.6692,-0.6691,-0.6693,-0.6695,-0.6694,-0.6701,-0.67,-0.67,-0.6707,-0.6705,-0.6707,-0.671,-0.6707,-0.6706,-0.6708,-0.67,-0.6703,-0.6702,-0.6702,-0.6701,-0.67,-0.6699,-0.6714,-0.6714,-0.6714,0,0,-0.6679,-0.6681,-0.6679,-0.6681,-0.6683,-0.6687,-0.6686,-0.669,-0.6692,-0.669,-0.6696,-0.6696,-0.6696,-0.6697,-0.6698,-0.669,-0.6694,-0.669,-0.6684,-0.6682,-0.6681,-0.668,-0.6677,-0.6676,-0.6689,-0.6689,-0.6689,0,-0.6673,-0.6672,-0.6677,-0.6676,-0.6677,-0.6683,-0.6681,-0.6682,-0.6685,-0.6685,-0.6688,-0.6689,-0.6691,-0.6689,-0.6687,-0.6687,-0.6687,-0.6689,-0.6681,-0.668,-0.6679,-0.6676,-0.6675,-0.6689,-0.6689,-0.6689,-0.6689,0,-0.6663,-0.6663,-0.666,-0.6663,-0.6664,-0.6662,-0.6667,-0.6667,-0.667,-0.6673,-0.6672,-0.6675,-0.6676,-0.6676,-0.6679,-0.6674,-0.6676,-0.668,-0.6685,-0.6677,-0.6675,-0.6674,-0.6688,-0.6688,-0.6688,-0.6688,0,0,-0.6647,-0.6653,-0.6652,-0.6654,-0.6658,-0.6658,-0.6656,-0.6658,-0.6658,-0.6659,-0.6658,-0.6659,-0.6662,-0.6663,-0.6667,-0.6666,-0.6659,-0.667,-0.667,-0.6668,-0.6654,-0.6651,-0.665,-0.6662,-0.6662,-0.6661,-0.6654,0,-0.6638,-0.6636,-0.6641,-0.6638,-0.6638,-0.6644,-0.6643,-0.6646,-0.6649,-0.6649,-0.6652,-0.6652,-0.6657,-0.6658,-0.6657,-0.666,-0.6656,-0.6661,-0.6661,-0.6661,-0.666,-0.6649,-0.6646,-0.6638,-0.6653,-0.6653,-0.6653,0,-0.6628,-0.6629,-0.6626,-0.6631,-0.6631,-0.6629,-0.6631,-0.6632,-0.6635,-0.6637,-0.6638,-0.6643,-0.6642,-0.6647,-0.6646,-0.6649,-0.6649,-0.6651,-0.6651,-0.6651,-0.6656,-0.6649,-0.6636,-0.6635,-0.6651,-0.6651,-0.6651,0,-0.6617,-0.6618,-0.6616,-0.6617,-0.6623,-0.6622,-0.6624,-0.6627,-0.6628,-0.6629,-0.663,-0.6631,-0.6632,-0.6634,-0.6638,-0.6641,-0.6637,-0.6642,-0.6639,-0.6639,-0.6638,-0.6638,-0.6625,-0.6638,-0.6638,-0.6638,-0.6638,0,-0.6606,-0.6604,-0.6612,-0.661,-0.6608,-0.6614,-0.6612,-0.6615,-0.6618,-0.6617,-0.6623,-0.6623,-0.6629,-0.663,-0.6633,-0.6632,-0.6632,-0.6634,-0.6635,-0.6634,-0.6634,-0.6634,-0.6635,-0.6637,-0.6638,-0.6638,-0.6638,0,-0.6594,-0.6598,-0.6597,-0.6602,-0.6603,-0.6602,-0.6606,-0.6606,-0.6609,-0.6609,-0.6609,-0.6614,-0.6615,-0.662,-0.6622,-0.6625,-0.6622,-0.6624,-0.6621,-0.6622,-0.6618,-0.6619,-0.6606,-0.6604,-0.6618,-0.6618,-0.6618,0,-0.6587,-0.6585,-0.659,-0.6591,-0.6593,-0.6593,-0.6594,-0.66,-0.66,-0.6604,-0.6603,-0.6604,-0.6605,-0.6607,-0.6611,-0.6612,-0.6614,-0.661,-0.6615,-0.6613,-0.6615,-0.6615,-0.6615,-0.6609,-0.6609,-0.6608,-0.6608,0,-0.6574,-0.6577,-0.6578,-0.658,-0.6581,-0.6582,-0.6584,-0.6584,-0.6591,-0.6591,-0.6592,-0.6593,-0.6596,-0.6597,-0.6599,-0.6602,-0.6606,-0.6607,-0.6606,-0.6605,-0.6603,-0.6604,-0.6618,-0.6607,-0.6607,-0.6607,-0.6607,-0.6607,-0.6564,-0.6563,-0.6567,-0.6568,-0.657,-0.6572,-0.6572,-0.6576,-0.6577,-0.6579,-0.6582,-0.6583,-0.6586,-0.659,-0.6592,-0.6593,-0.6595,-0.6594,-0.6594,-0.6594,-0.6593,-0.6603,-0.6593,-0.6593,-0.6593,-0.6593,-0.6593,0,-0.6552,-0.6555,-0.6556,-0.6559,-0.656,-0.6564,-0.6567,-0.6567,-0.6568,-0.657,-0.6572,-0.6573,-0.6575,-0.6579,-0.6581,-0.6581,-0.6583,-0.6581,-0.6581,-0.6582,-0.6591,-0.6591,-0.6579,-0.6579,-0.6579,-0.6579,-0.6579,-0.6579,-0.6546,-0.6545,-0.6548,-0.6548,-0.6551,-0.6552,-0.6553,-0.6555,-0.6557,-0.6559,-0.656,-0.6563,-0.6566,-0.6569,-0.657,-0.6572,-0.6572,-0.657,-0.6572,-0.658,-0.6581,-0.6582,-0.6583,-0.657,-0.657,-0.6563,-0.6563,-0.6563]},{"header":{"parameterUnit":"m.s-1","parameterCategory":1,"la1":30.2991,"la2":30.254,"lo1":-89.0895,"lo2":-89.0444,"dy":0.0017,"dx":0.0017,"nx":28,"ny":28,"refTime":"2025-05-24T03:00:00:Z","depth":0,"parameterNumber":3,"parameterNumberName":"V-component_of_WINDS"},"data":[0,0,0,0,0,0,0,0,0,0,0,0,0,0,0,0,0,0,0,0,0,0,0,0,0,0,0,0,0,0,0,0,0,0,0,0,0,0,0,0,0,0,0,0,0,0,0,0,0,0,0,0,0,0,0,0,0,0,5.5939,5.5939,0,5.5946,5.5946,5.5946,5.587,5.5868,5.5866,5.5864,5.587,5.5872,5.5874,0,0,0,0,0,0,0,0,0,0,0,0,0,5.5857,5.5859,5.5939,5.5939,5.5939,5.5946,5.5946,5.5946,5.5871,5.5868,5.5866,5.5863,5.5869,5.5872,5.5874,0,0,0,0,0,0,0,0,0,0,0,0,0,5.5882,5.586,5.5939,5.5902,5.5899,5.5946,5.5946,5.5946,5.5871,5.5868,5.5865,5.5862,5.5868,5.5872,5.5875,5.5957,0,0,5.5884,5.5886,0,0,0,0,0,0,0,0,5.588,5.5885,5.5907,5.5905,5.5901,5.5904,5.5919,5.595,5.5872,5.5882,5.5864,5.5861,5.5884,5.5885,5.5894,5.5957,5.5957,5.5885,5.5886,5.5888,5.5889,0,0,0,0,0,0,0,5.5879,5.5884,5.5941,5.5908,5.5904,5.5885,5.5885,5.5925,5.59,5.5881,5.5875,5.5877,5.5881,5.5891,5.5893,5.5957,5.5884,5.5887,5.5889,5.589,5.6088,5.6091,0,0,0,0,0,0,5.5882,5.5883,5.5941,5.5942,5.5883,5.5889,5.5889,5.5906,5.5899,5.5895,5.588,5.5874,5.5887,5.589,5.5893,5.5988,5.5888,5.5891,5.5892,5.6084,5.6089,5.6092,0,0,0,0,0,0,5.5881,5.5888,5.5941,5.5911,5.5916,5.5893,5.5914,5.5908,5.5917,5.5899,5.5894,5.5894,5.5885,5.5889,5.5941,5.5988,5.5892,5.5895,5.608,5.6086,5.609,5.618,0,0,0,0,0,0,5.5879,5.5888,5.5919,5.5912,5.5918,5.599,5.5917,5.5911,5.5923,5.5915,5.5911,5.5907,5.5882,5.5937,5.5945,5.599,5.5897,5.6076,5.6083,5.6089,5.6173,5.6187,5.62,0,0,0,0,0,5.5876,5.5944,5.5921,5.5929,5.5957,5.5993,5.5996,5.5967,5.5927,5.5958,5.5946,5.5907,5.5982,5.5943,5.5951,5.5998,5.6073,5.6081,5.6088,5.6167,5.6185,5.62,0,0,0,0,0,0,5.5956,5.5942,5.5917,5.5985,5.5991,5.598,5.6018,5.5987,5.6003,5.5995,5.5957,5.5957,5.6016,5.6012,5.597,5.6077,5.602,5.603,5.6077,5.6094,5.6107,5.6107,5.59,0,0,0,0,0,5.5982,5.6013,5.5999,5.606,5.6064,5.6041,5.6055,5.6032,5.6037,5.6039,5.603,5.6036,5.606,5.6077,5.6098,5.6172,5.617,5.6208,5.6222,5.6233,5.6242,5.628,5.6297,5.6117,5.6117,5.6117,0,0,5.6035,5.6031,5.6053,5.6076,5.6077,5.611,5.6043,5.608,5.6104,5.6044,5.6093,5.6088,5.6091,5.6155,5.6182,5.6154,5.6291,5.6243,5.6252,5.6254,5.629,5.6307,5.6322,5.6122,5.6121,5.612,0,0,5.6148,5.6148,5.6199,5.6203,5.6207,5.6191,5.6203,5.6198,5.6192,5.6241,5.6197,5.6224,5.6267,5.6271,5.6279,5.6395,5.6359,5.6403,5.6474,5.6512,5.6526,5.6538,5.6579,5.6595,5.6411,5.6412,5.6412,0,5.6213,5.626,5.6229,5.6269,5.6281,5.6229,5.628,5.6284,5.6295,5.6304,5.6272,5.6325,5.6323,5.6387,5.6416,5.6424,5.6436,5.6403,5.6527,5.6539,5.655,5.6588,5.6604,5.6417,5.6416,5.6416,5.6415,0,5.634,5.6374,5.6415,5.6427,5.6443,5.6488,5.6463,5.6483,5.6459,5.6447,5.6497,5.6494,5.6514,5.6528,5.6504,5.6588,5.657,5.6533,5.6475,5.6573,5.6608,5.6623,5.6424,5.6422,5.6421,5.642,0,0,5.6503,5.6498,5.6514,5.6519,5.652,5.6545,5.6588,5.6608,5.6626,5.6635,5.667,5.6708,5.6674,5.6683,5.6659,5.6693,5.6785,5.6651,5.6651,5.6676,5.6877,5.6905,5.6923,5.6761,5.6764,5.6766,5.6877,0,5.6613,5.6687,5.666,5.6735,5.6766,5.6718,5.6755,5.676,5.675,5.6774,5.6762,5.6789,5.6742,5.6747,5.6778,5.6767,5.6824,5.6759,5.6793,5.6795,5.6793,5.6941,5.6971,5.7075,5.689,5.6893,5.6894,0,5.6751,5.6767,5.6846,5.6842,5.6854,5.6888,5.6904,5.6928,5.6932,5.6922,5.6933,5.6903,5.6944,5.6887,5.6943,5.6899,5.6912,5.6909,5.6912,5.6913,5.685,5.6947,5.7108,5.7123,5.6916,5.6914,5.6913,0,5.6862,5.6903,5.6955,5.6961,5.6958,5.6983,5.6983,5.6984,5.6998,5.7012,5.7021,5.704,5.705,5.7065,5.704,5.7001,5.71,5.7041,5.7093,5.7094,5.7115,5.7114,5.7281,5.7125,5.7124,5.7124,5.7124,0,5.6987,5.7037,5.7005,5.7037,5.7092,5.706,5.7115,5.7109,5.7111,5.714,5.71,5.7129,5.7094,5.712,5.7101,5.715,5.7155,5.7148,5.7142,5.7152,5.7153,5.7159,5.7151,5.7128,5.7127,5.7126,5.7126,0,5.712,5.71,5.7154,5.7147,5.7146,5.7187,5.718,5.721,5.7197,5.7235,5.7242,5.7222,5.725,5.7227,5.7254,5.7241,5.7307,5.7291,5.7306,5.7302,5.7354,5.735,5.753,5.7552,5.7383,5.7384,5.7386,0,5.7201,5.7238,5.7236,5.7253,5.7256,5.7284,5.7299,5.7269,5.7286,5.7293,5.7322,5.7346,5.7365,5.7411,5.7399,5.7419,5.7403,5.7465,5.7406,5.7414,5.7404,5.7402,5.7405,5.7477,5.7479,5.7481,5.7482,0,5.7347,5.7336,5.7358,5.7378,5.7396,5.741,5.7421,5.7437,5.7407,5.7428,5.7456,5.747,5.7498,5.7523,5.754,5.7538,5.7506,5.7501,5.7514,5.7523,5.7531,5.7527,5.7338,5.7497,5.7495,5.7494,5.7493,5.7493,5.7456,5.7487,5.749,5.7517,5.7522,5.7533,5.756,5.7551,5.7574,5.7595,5.7576,5.7611,5.7614,5.7633,5.7636,5.7662,5.7636,5.7655,5.766,5.7665,5.7672,5.7527,5.7665,5.7664,5.7664,5.7663,5.7663,0,5.76,5.76,5.7624,5.7641,5.7662,5.763,5.764,5.7659,5.769,5.7696,5.7715,5.7748,5.7772,5.7762,5.7783,5.7806,5.7791,5.7812,5.781,5.781,5.7694,5.7681,5.7824,5.7824,5.7824,5.7824,5.7824,5.7823,5.7677,5.7728,5.7717,5.777,5.7769,5.7803,5.7812,5.7822,5.7826,5.7865,5.7885,5.7878,5.7878,5.7899,5.7919,5.7915,5.7925,5.7952,5.7943,5.7834,5.7818,5.7803,5.779,5.7954,5.7954,5.8056,5.8057,5.8058]}]]